SCP
0 0 0 0 0 0 0 0 0 0 0 0 0 0 0 0 0 0 -0 -0 -0 -0
0 0 0 0 0 0 0 0 0 0 0 0 0 0 0 0 0 -0 -0 0 -0 -0
0 0 0 0 0 0 0 0 0 0 0 0 0 0 0 0 0 0 0 0 0 0
0 0 0 0 0 0 0 0 0 0 0 0 0 0 0 0 0 0 0 0 0 0
0 0 0 0 0 0 0 0 0 0 0 0 0 0 0 0 0 0 0 0 0 0
0 0 0 0 0 0 0 0 0 0 0 0 0 0 0 0 0 0 0 0 0 0
0 0 0 0 0 0 0 0 0 0 0 0 0 0 0 0 0 0 0 0 0 0
0 0 0 0 0 0 0 0 0 0 0 0 0 0 0 0 0 0 0 0 0 0
0 0 0 0 0 0 0 0 0 0 0 0 0 0 0 0 0 0 0 0 0 0
0 0 0 0 0 0 0 0 0 0 0 0 0 0 0 0 0 0 0 0 0 0
0 0 0 0 0 0 0 0 0 0 0 0 0 0 0 0 0 0 0 0 0 0
0 0 0 0 0 0 0 0 0 0 0 0 0 0 0 0 0 0 0 0 0 0
0 0 0 0 0 0 0 0 0 0 0 0 0 0 0 0 0 0 0 0 0 0
0 0 0 0 0 0 0 0 0 0 0 0 0 0 0 0 0 0 0 0 0 0
Wind_Speed_500mb
17 13 14 16 16 14 14 17 22 23 24 27 30 31 31 33 36 27 35 43 46 43
16 17 12 13 16 13 16 18 23 25 30 30 27 25 29 28 18 27 29 25 37 33
10 9 11 11 15 18 19 22 26 30 31 33 30 25 22 29 29 35 30 25 35 27
6 5 8 11 15 20 24 28 29 30 32 30 28 29 28 21 24 20 27 25 26 30
1 3 5 9 16 24 28 34 34 35 33 31 31 29 29 27 22 23 24 22 24 27
4 4 7 12 20 28 33 38 45 42 35 33 32 31 29 30 30 32 27 26 28 25
10 9 12 18 25 33 38 41 37 35 36 35 34 31 30 28 41 43 35 33 37 29
12 13 17 23 29 32 37 35 35 36 36 35 33 30 36 47 49 51 50 45 39 35
15 17 22 27 31 33 33 34 35 37 37 36 32 38 53 55 55 52 46 43 41 41
18 23 27 30 31 32 33 36 37 38 36 36 34 44 54 60 52 45 41 37 33 33
22 26 29 31 31 32 33 36 37 38 36 37 35 45 53 57 49 34 32 32 33 35
23 27 28 31 33 34 36 34 35 35 36 38 39 39 50 52 38 33 31 29 29 32
23 26 29 31 32 36 33 36 35 36 36 39 42 37 44 43 34 33 31 29 27 29
23 27 27 27 31 34 32 37 40 42 39 39 35 34 41 47 41 29 33 31 28 24
Wind_Direction_500mb
88 88 66 66 53 40 29 12 10 11 10 359 347 330 301 282 275 307 309 293 286 284
88 86 74 48 55 35 21 13 1 360 353 355 350 345 325 311 320 334 313 316 316 300
92 63 40 32 27 22 14 4 357 351 348 345 346 335 322 318 301 292 328 312 303 319
92 35 27 20 9 356 352 347 345 338 332 328 328 325 313 308 315 317 290 303 311 308
96 357 347 344 336 334 334 331 329 325 320 315 310 308 311 309 294 286 278 291 305 302
262 290 314 325 322 323 322 320 318 317 316 314 309 308 301 297 296 263 274 281 276 288
260 287 307 314 313 313 315 316 316 314 312 310 309 307 305 279 264 275 266 254 257 264
267 292 303 308 312 313 313 313 313 311 310 308 306 304 277 283 283 282 284 277 273 275
275 294 305 310 313 312 311 310 309 308 306 305 305 288 286 286 288 290 286 283 280 274
289 301 307 308 309 309 308 307 304 302 302 298 296 293 290 293 298 297 291 284 282 278
295 300 302 302 302 303 303 303 304 301 300 297 296 289 291 293 307 302 295 289 283 282
297 301 301 299 300 298 303 302 303 302 299 291 290 290 288 295 306 304 300 297 287 278
305 304 301 297 298 291 296 300 299 294 292 292 293 295 297 303 310 303 302 302 300 295
306 301 302 298 290 292 294 295 295 296 296 297 301 301 296 305 310 307 299 296 295 285
Wind_Speed_850mb
17 13 14 16 16 14 14 17 22 23 24 27 30 31 31 33 36 27 35 43 46 43
16 17 12 13 16 13 16 18 23 25 30 30 27 25 29 28 18 27 29 25 37 33
10 9 11 11 15 18 19 22 26 30 31 33 30 25 22 29 29 35 30 25 35 27
6 5 8 11 15 20 24 28 29 30 32 30 28 29 28 21 24 20 27 25 26 30
1 3 5 9 16 24 28 34 34 35 33 31 31 29 29 27 22 23 24 22 24 27
4 4 7 12 20 28 33 38 45 42 35 33 32 31 29 30 30 32 27 26 28 25
10 9 12 18 25 33 38 41 37 35 36 35 34 31 30 28 41 43 35 33 37 29
12 13 17 23 29 32 37 35 35 36 36 35 33 30 36 47 49 51 50 45 39 35
15 17 22 27 31 33 33 34 35 37 37 36 32 38 53 55 55 52 46 43 41 41
18 23 27 30 31 32 33 36 37 38 36 36 34 44 54 60 52 45 41 37 33 33
22 26 29 31 31 32 33 36 37 38 36 37 35 45 53 57 49 34 32 32 33 35
23 27 28 31 33 34 36 34 35 35 36 38 39 39 50 52 38 33 31 29 29 32
23 26 29 31 32 36 33 36 35 36 36 39 42 37 44 43 34 33 31 29 27 29
23 27 27 27 31 34 32 37 40 42 39 39 35 34 41 47 41 29 33 31 28 24
Wind_Direction_850mb
88 88 66 66 53 40 29 12 10 11 10 359 347 330 301 282 275 307 309 293 286 284
88 86 74 48 55 35 21 13 1 360 353 355 350 345 325 311 320 334 313 316 316 300
92 63 40 32 27 22 14 4 357 351 348 345 346 335 322 318 301 292 328 312 303 319
92 35 27 20 9 356 352 347 345 338 332 328 328 325 313 308 315 317 290 303 311 308
96 357 347 344 336 334 334 331 329 325 320 315 310 308 311 309 294 286 278 291 305 302
262 290 314 325 322 323 322 320 318 317 316 314 309 308 301 297 296 263 274 281 276 288
260 287 307 314 313 313 315 316 316 314 312 310 309 307 305 279 264 275 266 254 257 264
267 292 303 308 312 313 313 313 313 311 310 308 306 304 277 283 283 282 284 277 273 275
275 294 305 310 313 312 311 310 309 308 306 305 305 288 286 286 288 290 286 283 280 274
289 301 307 308 309 309 308 307 304 302 302 298 296 293 290 293 298 297 291 284 282 278
295 300 302 302 302 303 303 303 304 301 300 297 296 289 291 293 307 302 295 289 283 282
297 301 301 299 300 298 303 302 303 302 299 291 290 290 288 295 306 304 300 297 287 278
305 304 301 297 298 291 296 300 299 294 292 292 293 295 297 303 310 303 302 302 300 295
306 301 302 298 290 292 294 295 295 296 296 297 301 301 296 305 310 307 299 296 295 285